CZ-2C DEB, 40289

Orbit data source: Space-Track

CZ-2C DEB, 40289 is space debris in SSO originally from a launch on Mon, 27 Oct 2014 UTC launched from the Jiuquan Satellite Launch Center, China (JSC). Debris objects in space refer to the collection of defunct objects orbiting the Earth. Examples of debris include non-operational satellites, rocket bodies, and fragments generated from explosions, collisions, or faulty payload assembly.

Loading next visibility...
CZ-2C DEB details
Identifier
40289, 2014-066D
Orbit
SSO
Last TLE update14 hours ago
Origin
Flag of CNCASC (CN / PRC)
ManufacturerCALT
MissionSpacecraft
Bus & MotorUnknown
Mass1 kg wet, 1 kg dry
Launch date (UTC)
2014-10-27 (10 years ago)
Launch vehicleUnknown
Launch site
Jiuquan Satellite Launch Center, China (JSC)
Object type
Payload
Rocket body
Debris
Shape & HBRCone, 0.2 m
Radar Cross Section0.025 m², Small (<0.1 m²)

Expand to show TLE details & history

TLE from 14 hours ago
0 CZ-2C DEB
1 40289U 14066D   24361.39440492  .00016035  00000-0  26745-2 0  9992
2 40289  98.5242 242.3408 0084278  50.2707 310.5884 14.67689425539039
Epoch: 2024-12-26T09:27Z
Definitive object data (Epoch: 2024-12-26T09:27:56.585Z)
Latitude-0.00006°
Longitude4.98061°
Altitude633.084 km
Speed7.562 km/s
True Right ascension16h 09m 21s
True Declination0° 00' 00"
Sunlit
Object was in daylight at TLE epoch
Visualization TLE readout
Latitude-25.07869°
Longitude-178.41238°
Altitude732.26 km
Speed7.459 km/s
Apparent Right ascension06h 44m 22s
Apparent Declination-44° 57' 10"
Sunlit
Object is in full shadow
Visualization observer readout
Local Sidereal Time22:52:14
Azimuth117.737° SE
Elevation-45.111°
Doppler factor1
Orbital elements
Apogee altitude724.903 km
Perigee altitude606.177 km
Semi-major axis7,043.677 km
Eccentricity0.0084278
Inclination98.5242°
RAAN242.3408°
Arg. of periapsis50.2707°
True anomaly309.84996°
Mean anomaly310.5884°
Eccentric anomaly310.21969°
Mean motion3.6715 °/min
BSTAR0.0026745
Orbital period98.05 mins
Loading maneuver chart data...
Loading historical data...
Loading historical data...
Loading historical data...
Loading historical data...
Loading historical data...
Loading historical data...
Loading historical data...
Other satellites on launch #66 in the year 2014 (2014-10-27 UTC)

CZ-2C DEB Visibility forecast

Observer location: undefined°, undefined

Span
Click to sort rows by Start time (UTC) header in descending order
Start Az.
Max El. time (UTC)
Max El. Az.
Max El.
End time (UTC)
End Az.
4 mins2024-12-27 04:03:54.600Z63.579° ENE2024-12-27 04:05:54.600Z92.538° ESE15.373°2024-12-27 04:07:54.600Z121.591° SE
7 mins2024-12-27 05:39:54.600Z356.236° N2024-12-27 05:42:54.600Z299.528° NW36.022°2024-12-27 05:46:54.600Z217.601° SW
6 mins2024-12-27 16:40:54.600Z192.102° SSW2024-12-27 16:43:54.600Z267.83° W35.995°2024-12-27 16:46:54.600Z329.806° NNW
|